Location: Beau Repaire
(50.6144°N, 4.0551°E)
Time: 05:00:03
(UTC+00:00)

Cosmos 1777 Rocket - Pass Details

Date: 15 May 2026
Orbit: 754 x 771 km, 74.0° (Epoch: 6 June)

Event Time Altitude Azimuth Distance (km) Brightness Sun altitude
Rises 21:32:29 0° 332° (NNW) 3,243 9.2 -14.9°
Reaches altitude 10° 21:34:54 10° 328° (NNW) 2,309 7.9 -15.1°
Maximum altitude 21:39:59 54° 253° (WSW) 919 4.4 -15.5°
Enters shadow 21:43:21 21° 183° (S) 1,672 5.3 -15.8°
